Weather in Novodugino

Russia / Smolensk Oblast     55°37′56″N   34°17′30″E
temp.,
°C
wind,
m/s
gust,
m/s
humid.,
%
clouds,
%
prec.,
mm/h
press.,
hPa
HPBL,
m
27 july, tue
tue2700:00+18e227021 0.0 102111
03:00+16se118097 0.0 102111
06:00+16sse11841 0.1 102116
09:00+22sse11650 0.1 1020392
12:00+26sse22505 0.0 10201141
15:00+26se345381 0.0 1018585
18:00+24nne456481 0.1 1018224
21:00+18ene2393100 5.9 101850
28 july, wed
wed2800:00+17sse338988 0.0 101743
03:00+17ssw3788100 0.0 1016156
06:00+17s2390100 0.2 101569
09:00+18se369194 0.8 1014224
12:00+19sse51191100 2.6 1013735
15:00+17se61296100 7.0 1011674
18:00+16sse4897100 2.3 1010371
21:00+17wsw259866 2.3 1009231
29 july, thu
thu2900:00+16w369869 0.0 1009201
03:00+15w359827 0.0 1008101
06:00+16w3698100 0.0 1008167
09:00+20wnw3583100 0.0 1008409
12:00+24w3564100 0.1 1008750
15:00+26wnw574984 0.3 10071919
18:00+24w485443 0.0 1006275
21:00+19w347496 0.0 100752
30 july, fri
fri3000:00+17w35840 0.0 100782
03:00+16wsw349312 0.0 100854
06:00+16wsw35925 0.0 1008111
09:00+22wsw35685 0.0 1008507
12:00+24wsw45612 1.3 10071111
15:00+26wsw574375 1.4 10072307
18:00+24wsw3658100 0.0 1006480
21:00+20sw4106590 0.0 1005225
31 july, sat
sat3100:00+17ssw227279 0.0 100616
03:00+17wsw3871100 0.0 1006219
06:00+16sw388828 0.4 1006213
09:00+21wsw69650 0.4 1006752
12:00+25wsw7114899 0.0 10052393
15:00+24sw51053100 0.0 10041102
18:00+24wsw71147100 0.0 10041158
21:00+19sw411581 0.0 1005245